Вернуться в каталог

THOR ABLESTAR DEB

АктивенPO
NORAD 3810·DEBRIS·🇺🇸 United States

Запущен Aug 13, 1965 с Vandenberg Space Force Base

Loading…

Ближайшие Пролёты (ближайшие 24 часа)

TLE

СвежийSource: Space-Track

Эпоха: Sep 13, 2026, 22:30 UTC

1 03810U 65065P   26256.93770979  .00000436  00000-0  63892-3 0  9990
2 03810  90.0035 216.0555 0063744  32.2089  31.1128 13.52269024270877

Отслеживайте THOR ABLESTAR DEB в реальном времени с AllMySat

Download on the App Store